Temperature
19 19 18 18 18 18 17 17 17 17 17 17 17 17 17 17 16 16 16 16 16 16 16 16 16 16 16 16 16 16 16 16 16 15 15 15 15 15 15 15 15 15 15
19 19 19 18 18 18 18 17 17 17 17 17 17 17 16 16 16 16 16 16 16 16 16 16 16 15 15 15 15 15 15 15 15 15 15 15 15 15 14 14 14 14 14
19 19 18 18 18 18 17 17 17 17 17 16 16 16 16 16 16 16 16 16 16 16 15 15 15 15 15 15 15 15 15 15 15 14 14 14 14 14 14 14 14 13 13
19 19 18 18 18 17 17 17 17 17 16 16 16 16 16 16 16 16 16 15 15 15 15 15 15 15 15 15 15 14 14 14 14 14 14 14 14 13 13 13 13 13 13
19 19 18 18 17 17 17 17 16 16 16 16 16 16 16 15 15 15 15 15 15 15 15 14 14 14 14 14 14 14 14 14 14 14 13 13 13 13 13 13 12 12 12
19 19 18 18 17 17 17 17 16 16 16 16 16 15 15 15 15 15 15 15 15 14 14 14 14 14 14 14 13 13 13 13 13 13 13 12 12 12 12 12 12 12 11
19 18 18 17 17 17 16 16 16 16 16 15 15 15 15 15 14 14 14 14 14 14 14 13 13 13 13 13 13 13 13 12 12 12 12 12 12 12 11 11 11 11 11
18 18 17 17 17 16 16 16 15 15 15 15 15 14 14 14 14 14 14 14 13 13 13 13 13 12 12 12 12 12 12 12 11 11 11 11 11 11 11 11 11 10 10
18 17 17 17 16 16 16 15 15 15 15 14 14 14 14 13 13 13 13 13 13 13 12 12 12 12 11 11 11 11 11 11 11 10 10 10 10 10 10 10 10 10 10
18 17 17 16 16 15 15 15 14 14 14 14 13 13 13 13 13 12 12 12 12 12 12 11 11 11 11 11 11 11 10 10 10 10 10 10 10 10 10 9 9 9 9
17 17 16 16 15 15 15 14 14 14 14 13 13 13 12 12 12 12 12 12 12 11 11 11 11 10 10 10 10 10 10 10 9 9 9 9 9 9 9 9 9 8 8
16 16 15 15 15 14 14 14 14 13 13 13 12 12 12 12 11 11 11 11 11 11 10 10 10 10 10 10 9 9 9 9 9 9 9 9 8 8 8 8 8 8 8
16 15 15 14 14 14 14 13 13 13 12 12 12 12 11 11 11 10 10 10 10 10 10 9 9 9 9 9 9 9 9 9 9 9 8 8 8 8 8 8 8 8 7
15 15 14 14 14 13 13 13 13 12 12 12 11 11 11 10 10 10 10 10 10 9 9 9 9 9 9 9 8 8 8 8 8 8 8 8 8 8 7 7 7 7 7
15 14 14 14 13 13 13 12 12 12 12 11 11 11 10 10 10 9 9 9 9 9 9 9 9 8 8 8 8 8 8 8 8 8 7 7 7 7 7 7 7 7 6
14 14 14 13 13 13 12 12 11 11 11 10 10 10 10 9 9 9 9 9 9 9 9 8 8 8 8 8 7 7 7 7 7 7 7 7 7 7 7 6 6 6 6
14 13 13 13 12 12 12 12 11 10 10 10 10 9 9 9 9 9 8 8 8 8 8 8 8 8 7 7 7 7 7 7 7 7 7 7 7 7 6 6 6 6 6
13 13 13 12 12 12 11 11 11 11 10 9 9 9 9 9 8 8 8 8 8 8 8 8 8 7 7 7 7 7 7 7 7 6 6 6 6 6 6 6 6 6 6
13 12 12 12 12 11 11 10 10 10 10 9 9 9 8 8 8 8 8 8 8 8 8 7 7 7 7 7 7 7 7 6 6 6 6 6 6 6 6 6 6 6 6
12 12 12 12 11 11 10 10 10 10 9 9 9 9 8 8 8 8 8 8 8 7 7 7 7 7 7 7 7 7 7 6 6 6 6 6 6 6 6 6 6 6 6
12 11 11 11 11 11 10 10 10 10 9 9 9 8 8 8 8 8 8 8 7 7 7 7 7 7 7 7 7 6 6 6 6 6 6 6 6 6 6 6 6 5 5
11 11 11 11 10 10 10 10 10 10 9 9 9 8 8 8 8 8 8 7 7 7 7 7 7 7 7 7 6 6 6 6 6 6 6 6 6 5 5 5 5 5 5
11 11 11 10 10 10 10 10 10 9 9 9 9 8 8 8 8 8 8 7 7 7 7 7 7 7 6 6 6 6 6 6 6 6 6 6 5 5 5 5 5 5 5
11 11 10 10 10 10 10 10 10 9 9 9 9 9 8 8 8 8 8 7 7 7 7 7 7 6 6 6 6 6 6 6 6 6 6 5 5 5 5 5 5 5 5
11 11 10 10 10 10 10 10 10 9 9 9 9 8 8 8 8 8 7 7 7 7 7 7 7 6 6 6 6 6 6 6 6 6 6 5 5 5 5 5 5 5 5
11 11 11 11 10 10 10 10 10 9 9 9 9 8 8 8 8 8 7 7 7 7 7 7 7 7 6 6 6 6 6 6 6 6 5 5 5 5 5 5 5 5 5
Wind_Speed
5 3 3 3 2 2 2 2 2 2 2 2 1 1 1 1 1 1 1 2 2 2 1 1 2 1 1 1 1 1 0 2 2 2 1 2 2 2 2 2 2 2 1
5 5 4 3 3 4 3 3 3 3 2 2 2 1 1 1 1 1 1 1 1 1 1 0 1 1 0 1 1 0 0 1 2 2 2 2 2 1 2 2 3 3 4
6 5 4 4 4 4 3 3 3 3 3 2 2 2 1 1 0 0 0 1 0 0 0 0 0 0 1 1 1 1 0 0 1 1 2 1 1 2 2 2 3 3 4
6 6 5 4 4 4 4 3 3 3 4 3 3 2 2 2 2 2 2 2 2 2 2 2 2 1 1 1 1 1 1 1 1 1 0 1 1 1 2 2 2 2 2
7 6 5 5 4 4 4 4 4 4 4 4 4 4 4 3 3 3 2 3 3 3 4 4 5 7 8 5 3 2 2 1 1 2 1 1 2 1 1 0 1 1 2
8 7 6 5 5 4 4 4 4 4 4 5 5 5 5 4 5 5 4 4 4 4 4 5 6 7 9 10 10 9 6 4 2 2 1 1 1 1 1 1 1 1 0
8 7 6 6 5 4 5 5 5 4 5 6 5 5 6 7 8 9 9 7 6 5 4 4 5 5 6 5 8 10 10 10 7 3 3 1 1 1 1 1 1 1 1
7 7 6 6 6 5 6 6 5 5 5 5 5 6 6 7 9 10 10 8 7 6 6 5 5 5 5 4 5 7 6 6 5 4 3 2 2 1 0 1 2 2 3
7 7 7 7 7 7 7 6 5 6 6 6 5 6 6 7 9 9 8 6 7 6 6 6 5 5 6 5 5 5 5 5 8 9 8 7 8 9 6 4 3 3 2
7 7 7 7 8 8 7 7 5 6 6 6 7 6 6 6 7 9 8 5 6 5 5 5 7 6 6 6 4 5 5 3 4 5 6 7 8 9 9 5 3 3 2
8 8 8 8 8 8 7 7 7 7 7 7 7 6 6 7 7 8 8 5 5 4 4 4 4 7 8 8 6 4 2 2 3 3 4 4 5 5 6 6 4 3 3
9 9 8 7 7 7 8 7 7 7 8 6 6 6 5 5 7 7 8 7 5 5 3 2 4 8 9 8 6 6 7 5 3 4 4 4 4 3 3 5 7 6 4
10 9 8 7 7 6 7 7 6 6 6 5 5 5 4 4 5 9 8 8 7 4 3 5 6 8 8 7 9 9 7 4 4 3 3 2 2 2 4 5 7 8 9
10 9 8 8 7 7 6 5 5 5 5 5 4 4 3 3 4 4 4 5 6 5 4 5 7 9 8 7 7 6 5 3 3 3 2 2 3 4 4 4 4 4 4
10 8 8 7 8 7 7 6 5 3 4 5 4 4 4 2 1 2 3 3 2 3 3 4 5 5 5 6 5 5 5 5 5 4 4 4 4 4 3 3 3 3 4
9 8 7 7 6 6 7 7 10 7 8 8 7 6 3 3 4 6 7 7 7 7 6 5 4 4 4 4 4 4 4 4 4 4 4 4 3 3 3 3 3 3 3
9 8 7 7 7 6 6 7 6 6 9 9 8 8 7 7 8 8 8 8 8 8 6 4 3 3 3 3 3 3 3 3 3 4 3 3 3 3 3 3 3 3 2
9 9 8 7 6 6 6 5 6 6 4 3 4 6 7 7 7 7 7 7 5 5 3 3 2 2 2 2 2 2 2 3 3 3 3 3 3 2 2 2 2 1 1
8 7 7 6 6 6 6 5 5 5 5 3 2 2 3 5 5 5 5 4 3 2 2 2 2 2 2 2 2 2 2 2 2 2 3 3 2 2 2 2 2 2 2
6 9 9 7 7 6 6 6 6 5 5 4 3 2 1 3 2 2 2 2 2 2 2 2 1 2 2 2 2 2 2 2 2 2 2 2 2 2 2 1 1 1 1
6 8 10 8 7 7 7 6 6 6 5 4 3 3 5 3 3 2 2 2 2 2 2 2 1 1 2 2 2 2 2 1 1 1 2 2 2 2 1 1 1 1 1
6 6 6 6 6 6 6 6 6 5 5 5 3 3 6 3 2 2 2 2 2 3 3 3 2 2 2 3 3 3 2 1 0 0 1 1 1 1 1 1 2 1 1
6 6 6 5 5 7 6 5 5 5 5 5 4 4 4 3 3 3 3 2 2 3 4 4 3 2 3 4 4 4 3 2 2 1 1 1 1 1 1 2 2 2 2
6 7 6 5 5 5 6 6 6 6 5 5 5 5 4 4 4 4 3 3 3 3 4 5 6 6 6 4 4 5 4 4 3 2 2 1 1 2 2 2 2 3 3
6 6 6 6 6 6 6 6 6 6 5 5 5 5 5 4 4 4 3 4 4 4 5 7 7 7 7 6 6 5 4 4 3 2 2 1 1 2 2 3 3 3 3
5 6 5 5 6 6 6 6 6 6 6 5 5 5 5 5 5 4 4 4 4 5 6 7 8 8 9 8 8 7 6 6 5 4 3 2 2 2 3 3 5 4 4
Wind_Direction
153 148 137 130 121 111 107 103 102 93 101 107 111 114 125 130 151 159 211 218 210 222 234 218 248 259 286 321 338 358 187 162 201 282 305 330 355 9 37 64 68 94 83
153 139 136 124 111 103 97 90 90 91 99 102 91 89 100 90 97 122 215 223 198 222 245 219 277 274 24 339 352 12 13 168 182 245 308 339 348 10 58 57 65 74 72
146 134 127 116 109 107 100 92 86 87 80 79 87 93 87 69 62 30 97 101 103 93 105 128 275 56 12 351 11 10 343 72 137 184 283 325 355 32 44 44 58 60 70
143 135 130 129 128 121 109 98 88 84 76 67 67 64 64 65 63 66 78 79 75 63 59 60 55 83 76 50 42 18 44 61 78 111 343 351 7 10 51 46 32 25 43
143 139 139 138 132 123 115 108 97 85 80 72 63 54 50 57 62 76 87 90 83 67 56 59 64 73 71 69 69 49 52 68 84 91 63 43 29 27 6 331 103 79 46
145 143 138 132 124 121 117 108 98 86 77 71 64 61 54 48 54 70 86 81 85 81 74 64 63 60 66 68 69 68 71 81 86 84 75 66 0 348 358 63 110 102 47
147 143 140 141 133 129 120 103 94 86 82 75 65 66 64 51 56 65 74 80 78 74 74 67 66 60 61 64 64 63 59 61 72 99 89 55 345 320 6 59 78 93 89
141 136 138 135 128 119 109 101 93 89 86 80 69 66 67 57 62 72 77 77 74 65 61 64 69 55 59 73 72 66 56 45 54 66 82 44 29 5 147 156 147 97 68
135 135 136 133 127 119 109 101 95 92 84 76 70 66 66 54 63 76 79 81 77 64 56 58 63 54 50 68 76 72 55 34 50 60 61 54 52 53 60 72 69 84 60
131 129 126 124 121 119 114 106 98 96 92 86 72 61 66 59 60 73 78 88 85 70 55 49 52 53 47 57 76 80 68 27 31 37 38 36 38 44 52 67 93 99 89
117 111 109 113 118 119 116 113 110 105 96 87 81 62 53 51 58 69 73 84 95 86 68 46 35 50 57 58 69 71 76 69 53 55 41 30 29 29 32 43 62 98 101
111 107 108 110 113 115 115 111 108 108 102 94 87 69 45 38 53 66 71 76 86 92 79 53 44 53 55 55 58 57 60 65 63 59 53 39 31 22 16 34 48 55 65
113 110 106 98 91 98 109 112 111 108 107 103 98 89 59 35 44 59 65 68 70 76 74 74 64 57 50 45 43 48 53 58 64 63 52 28 11 14 29 37 40 46 44
121 117 111 104 95 84 86 96 108 110 111 110 108 105 85 52 39 38 43 53 60 66 65 56 54 52 51 42 36 37 42 57 80 76 60 34 30 36 37 37 41 36 39
123 119 113 109 108 94 80 70 89 92 133 137 137 133 126 106 354 76 90 69 72 81 75 55 49 45 43 39 34 31 36 45 53 50 54 49 43 40 28 27 46 50 52
130 129 125 121 115 113 108 86 60 75 89 102 115 122 105 115 110 94 82 78 80 86 81 70 62 58 58 56 52 37 36 45 48 55 57 56 53 49 34 28 42 54 49
139 138 134 132 131 129 126 122 109 69 67 75 92 104 108 110 101 92 82 76 77 84 80 78 76 73 69 68 66 60 41 30 41 56 56 48 50 49 51 44 40 45 37
138 142 143 145 142 140 136 130 128 128 112 66 53 86 98 97 95 89 83 82 67 60 78 92 90 89 88 84 77 67 49 40 43 46 45 40 42 53 52 39 37 42 31
137 144 145 144 142 141 137 134 131 128 127 123 97 58 72 84 76 71 80 91 101 87 79 90 102 109 106 102 95 84 69 55 45 41 37 35 33 49 38 11 5 16 37
140 147 146 144 144 143 143 143 144 142 139 140 147 155 119 96 85 68 80 105 116 119 120 116 116 123 122 117 105 91 73 59 45 42 28 20 18 37 31 14 17 20 350
142 148 144 141 147 152 152 155 156 155 156 162 177 184 162 148 157 160 149 142 149 157 159 148 131 125 123 122 112 99 87 59 34 29 22 15 18 16 1 15 7 353 341
143 144 147 148 150 154 156 158 158 160 165 168 172 169 171 155 161 161 160 178 190 185 174 167 169 172 163 155 148 133 119 107 44 32 20 11 14 1 353 355 351 338 334
145 146 146 148 149 155 156 157 162 168 173 175 172 166 165 171 172 169 176 184 184 176 175 161 153 156 149 146 155 156 163 189 221 227 235 316 327 316 303 299 298 303 304
153 153 153 155 154 158 164 168 172 175 174 174 175 174 177 180 181 180 179 176 174 172 167 162 163 165 164 159 161 173 186 199 210 219 220 232 287 298 298 296 289 284 287
154 156 161 165 164 164 165 167 167 169 171 175 174 174 176 177 180 183 185 180 174 178 180 175 175 179 183 188 193 203 213 223 237 243 246 268 280 292 296 291 289 287 283
158 162 166 167 167 166 166 168 167 166 168 171 171 172 174 177 184 188 190 185 188 195 198 197 196 197 201 207 214 221 232 245 255 255 256 277 282 286 293 287 292 289 285
Height
1551 1551 1551 1551 1551 1551 1551 1550 1550 1550 1551 1551 1551 1551 1551 1552 1553 1553 1553 1554 1554 1554 1555 1555 1555 1555 1555 1555 1555 1555 1555 1555 1553 1553 1553 1552 1551 1550 1549 1549 1548 1547 1547
1551 1551 1551 1551 1551 1551 1551 1550 1550 1550 1550 1550 1550 1550 1550 1550 1551 1551 1551 1551 1551 1552 1552 1552 1552 1552 1552 1552 1552 1552 1552 1551 1551 1550 1550 1549 1549 1548 1547 1546 1546 1545 1545
1550 1551 1551 1551 1551 1551 1551 1550 1550 1550 1550 1550 1550 1549 1550 1550 1550 1550 1550 1549 1549 1549 1549 1549 1549 1549 1549 1549 1549 1549 1549 1549 1548 1548 1547 1547 1546 1546 1545 1544 1544 1543 1543
1550 1550 1550 1551 1550 1550 1550 1550 1550 1550 1550 1550 1550 1549 1549 1549 1549 1548 1548 1548 1548 1548 1547 1547 1547 1546 1546 1547 1547 1547 1546 1546 1545 1545 1545 1544 1543 1543 1543 1542 1542 1542 1541
1549 1550 1550 1550 1550 1550 1550 1550 1550 1550 1550 1550 1549 1549 1548 1548 1548 1547 1547 1547 1546 1546 1546 1545 1545 1545 1544 1544 1544 1544 1544 1543 1543 1542 1542 1542 1541 1540 1540 1540 1540 1539 1539
1549 1549 1549 1550 1550 1550 1550 1550 1550 1550 1550 1549 1549 1549 1548 1547 1547 1547 1547 1546 1546 1545 1545 1545 1544 1544 1543 1543 1543 1543 1542 1542 1541 1540 1539 1539 1539 1539 1539 1538 1538 1538 1537
1547 1548 1549 1550 1550 1550 1550 1550 1550 1550 1550 1549 1549 1548 1548 1547 1547 1547 1546 1546 1545 1545 1544 1544 1544 1543 1543 1542 1542 1542 1541 1540 1540 1540 1538 1538 1538 1537 1537 1536 1536 1536 1535
1546 1547 1548 1549 1549 1550 1550 1550 1550 1550 1549 1549 1549 1548 1548 1547 1547 1547 1546 1546 1545 1545 1545 1544 1544 1543 1543 1543 1542 1541 1540 1540 1539 1538 1538 1538 1537 1537 1536 1536 1535 1535 1534
1545 1546 1547 1548 1548 1549 1549 1550 1550 1550 1549 1549 1548 1548 1547 1547 1547 1547 1546 1546 1545 1545 1545 1544 1544 1544 1543 1543 1542 1541 1540 1540 1540 1539 1538 1538 1537 1536 1535 1534 1534 1533 1532
1544 1545 1546 1547 1548 1548 1549 1549 1549 1549 1549 1549 1548 1548 1548 1547 1548 1548 1547 1547 1546 1545 1545 1545 1544 1544 1544 1543 1542 1541 1540 1540 1540 1540 1539 1538 1537 1536 1535 1534 1533 1533 1532
1544 1544 1545 1546 1547 1547 1548 1548 1549 1549 1549 1549 1549 1548 1548 1548 1548 1548 1548 1547 1546 1546 1545 1545 1545 1545 1544 1543 1543 1542 1541 1541 1541 1540 1539 1539 1537 1536 1536 1535 1534 1533 1533
1543 1544 1545 1546 1547 1547 1547 1548 1548 1549 1549 1549 1549 1549 1549 1549 1549 1549 1548 1548 1547 1546 1546 1546 1546 1546 1545 1544 1543 1543 1542 1542 1541 1541 1540 1539 1538 1538 1537 1536 1535 1535 1534
1542 1543 1544 1546 1546 1547 1547 1547 1548 1548 1549 1549 1549 1549 1549 1549 1549 1549 1549 1548 1548 1548 1547 1547 1547 1547 1546 1545 1545 1544 1543 1543 1542 1541 1541 1540 1540 1539 1539 1538 1537 1536 1535
1540 1542 1543 1544 1545 1546 1547 1547 1548 1548 1548 1549 1549 1549 1549 1549 1550 1550 1550 1550 1549 1549 1548 1548 1548 1548 1547 1547 1546 1545 1545 1544 1543 1543 1542 1542 1541 1540 1539 1539 1539 1538 1537
1540 1541 1542 1544 1545 1546 1546 1547 1548 1548 1549 1549 1550 1550 1550 1550 1550 1551 1551 1551 1551 1550 1550 1550 1549 1549 1549 1548 1548 1547 1547 1546 1545 1544 1544 1544 1543 1542 1542 1542 1541 1540 1539
1539 1540 1541 1543 1544 1545 1545 1547 1548 1549 1549 1550 1550 1550 1550 1551 1551 1552 1552 1552 1552 1552 1552 1551 1551 1550 1550 1550 1550 1549 1549 1548 1547 1547 1546 1546 1545 1544 1544 1543 1542 1542 1541
1538 1539 1540 1542 1543 1545 1545 1546 1547 1549 1549 1550 1551 1551 1552 1552 1552 1553 1553 1553 1554 1554 1553 1553 1553 1553 1552 1552 1552 1551 1550 1550 1549 1548 1548 1547 1546 1546 1545 1545 1544 1543 1542
1537 1539 1540 1542 1543 1545 1546 1547 1548 1548 1549 1550 1551 1552 1552 1553 1553 1554 1554 1555 1555 1555 1555 1555 1555 1554 1554 1554 1553 1553 1552 1551 1551 1550 1549 1549 1548 1547 1547 1546 1545 1544 1543
1537 1539 1540 1542 1543 1545 1546 1547 1548 1549 1550 1550 1551 1552 1553 1554 1555 1555 1555 1555 1556 1556 1556 1556 1556 1556 1555 1555 1555 1554 1553 1553 1552 1551 1551 1550 1549 1549 1548 1547 1546 1545 1544
1537 1538 1540 1541 1543 1544 1546 1547 1548 1549 1550 1551 1552 1553 1554 1554 1555 1556 1556 1556 1557 1557 1557 1557 1557 1557 1557 1556 1556 1555 1555 1554 1553 1552 1552 1551 1550 1550 1549 1548 1547 1546 1545
1537 1538 1540 1542 1543 1545 1546 1547 1549 1550 1551 1552 1553 1554 1555 1555 1556 1556 1557 1557 1558 1558 1558 1558 1558 1558 1558 1557 1557 1556 1555 1555 1554 1553 1552 1551 1550 1550 1549 1548 1547 1545 1544
1536 1538 1540 1541 1543 1545 1546 1548 1549 1550 1551 1552 1553 1554 1555 1556 1557 1557 1558 1558 1559 1559 1559 1559 1559 1559 1558 1558 1557 1557 1556 1555 1554 1553 1552 1551 1550 1549 1548 1547 1546 1545 1543
1536 1538 1540 1542 1543 1545 1547 1548 1549 1551 1552 1553 1554 1555 1555 1556 1557 1557 1558 1558 1559 1559 1559 1559 1559 1559 1558 1558 1557 1557 1556 1555 1554 1553 1552 1550 1549 1548 1547 1546 1544 1543 1542
1537 1538 1540 1542 1543 1545 1546 1548 1549 1550 1552 1553 1554 1555 1556 1556 1557 1558 1558 1559 1559 1559 1559 1559 1559 1558 1558 1558 1557 1556 1555 1554 1553 1552 1550 1549 1548 1546 1545 1544 1543 1541 1540
1537 1538 1540 1541 1543 1544 1546 1547 1548 1550 1551 1552 1553 1554 1555 1556 1557 1557 1558 1558 1558 1559 1559 1558 1558 1558 1557 1557 1556 1555 1554 1553 1551 1550 1549 1547 1546 1544 1543 1542 1540 1539 1537
1536 1538 1539 1540 1542 1544 1545 1546 1548 1549 1550 1551 1552 1553 1554 1555 1556 1556 1557 1557 1557 1558 1558 1557 1557 1557 1556 1555 1554 1553 1552 1551 1550 1548 1547 1545 1543 1542 1540 1539 1537 1536 1534